Preview of NWS' New Version of Forecast
This preview is not operational and should not be used for support decisions.

Regional Weather Roundup (RWR)

Issued by National Weather Service (NWS)

                            
000
ASCA42 TJSJ 170610
RWRPR 
PUERTO RICO/U.S. VIRGIN ISLANDS HOURLY WEATHER ROUNDUP
NATIONAL WEATHER SERVICE SAN JUAN PR
200 AM AST WED APR 17 2019

PRZ001>002-007>008-010-170700-
PUERTO RICO
  
CITY           SKY/WX    TMP DP  RH WIND       PRES   REMARKS
SAN JUAN LMM   PTCLDY    77  72  83 SE6       30.00F                  
CEIBA          CLOUDY    79  70  73 E8        30.01F                  
$$

VIZ001>002-170700-
U.S. VIRGIN ISLANDS
  
CITY           SKY/WX    TMP DP  RH WIND       PRES   REMARKS
CHARLOTTE AMA  CLEAR     77  66  69 E12       29.99F                  
CHRISTIANSTED    N/A     75  66  73 NE8       30.00F                  
$$

HOURLY WEATHER ROUNDUP FOR THE NEWS MEDIA
  
CITY           SKY/WX    TMP DP  RH WIND       PRES   REMARKS
ORLANDO        FAIR      66  58  75 NE6       30.14F                  
NEW YORK       LGT RAIN  50  42  74 N10       30.08S                  
NEWARK         CLOUDY    51  40  65 N10       30.07S                  
CHICAGO        FAIR      46  41  82 NE8       29.98R                  
HARTFORD       CLOUDY    47  29  49 N9        30.04S                  
BOSTON         FAIR      47  26  44 NW7       30.05R                  
DALLAS         CLOUDY    70  60  70 S10       29.89                   
PHILADELPHIA   CLOUDY    54  37  52 NE8       30.05S                  
LOS ANGELES    PTCLDY    58  48  69 W12       30.06R                  
WASHINGTON DC  FAIR      57  37  47 S7        30.00S